Location: ?????????
(41.2286°N, 23.0068°E)
Time: 09:03:34
(UTC+00:00)

Cosmos 1420 Rocket - Pass Details

Date: 08 November 2025
Orbit: 750 x 777 km, 74.0° (Epoch: 04 December)

Event Time Altitude Azimuth Distance (km) Brightness Sun altitude
Rises 03:55:04 0° 195° (SSW) 3,215 7.2 -13.9°
Reaches altitude 10° 03:57:25 10° 194° (SSW) 2,298 6.4 -13.5°
Maximum altitude 04:02:38 82° 108° (ESE) 783 4.1 -12.5°
Drops below altitude 10° 04:07:56 10° 21° (NNE) 2,329 6.6 -11.6°
Sets 04:10:20 0° 21° (NNE) 3,263 7.4 -11.1°
